GFSGBSN_prec_precacc24_072.txt.gz
Total_Precipitation_Accumulation
0.02 0.02 0.03 0.02 0.02 0.01 0.01 0.01 0.01 0.01 0.01 0.01 0.00 0.00 0.00 0.00 0.00 0.00 0.00 0.00 0.00 0.00 0.00 0.00 0.00 0.00 0.00 0.00 0.00 0.00 0.00 0.00 0.00 0.00 0.00 0.00 0.00 0.00 0.00 0.00 0.00 0.00 0.00 0.00 0.00 0.01 0.00
0.02 0.02 0.02 0.02 0.02 0.01 0.01 0.01 0.01 0.01 0.00 0.00 0.00 0.00 0.00 0.00 0.00 0.00 0.00 0.00 0.00 0.00 0.00 0.00 0.00 0.00 0.00 0.00 0.00 0.00 0.00 0.00 0.00 0.00 0.00 0.00 0.00 0.00 0.00 0.00 0.00 0.00 0.00 0.00 0.00 0.00 0.00
0.02 0.02 0.02 0.02 0.02 0.02 0.01 0.01 0.01 0.01 0.01 0.01 0.00 0.00 0.00 0.01 0.01 0.01 0.01 0.00 0.00 0.00 0.00 0.00 0.00 0.00 0.00 0.00 0.00 0.00 0.00 0.00 0.00 0.00 0.00 0.00 0.00 0.00 0.00 0.00 0.00 0.00 0.00 0.00 0.04 0.02 0.00
0.03 0.02 0.02 0.02 0.02 0.02 0.02 0.01 0.01 0.01 0.01 0.00 0.00 0.00 0.00 0.00 0.01 0.00 0.00 0.00 0.00 0.00 0.00 0.00 0.00 0.00 0.00 0.00 0.00 0.00 0.00 0.00 0.00 0.00 0.00 0.00 0.00 0.00 0.00 0.00 0.00 0.00 0.00 0.00 0.05 0.01 0.00
0.03 0.03 0.02 0.02 0.02 0.02 0.02 0.02 0.01 0.01 0.01 0.01 0.00 0.00 0.00 0.00 0.00 0.01 0.00 0.00 0.00 0.00 0.00 0.00 0.00 0.00 0.00 0.00 0.00 0.00 0.00 0.00 0.00 0.00 0.00 0.00 0.00 0.00 0.00 0.01 0.00 0.00 0.00 0.00 0.00 0.00 0.00
0.03 0.03 0.03 0.02 0.02 0.02 0.02 0.02 0.02 0.01 0.01 0.01 0.00 0.00 0.00 0.00 0.01 0.01 0.00 0.00 0.00 0.00 0.00 0.00 0.00 0.00 0.00 0.00 0.00 0.00 0.00 0.00 0.00 0.00 0.00 0.00 0.00 0.00 0.00 0.00 0.00 0.00 0.00 0.00 0.00 0.00 0.00
0.03 0.03 0.03 0.03 0.02 0.02 0.02 0.02 0.03 0.02 0.01 0.01 0.01 0.00 0.00 0.01 0.01 0.02 0.00 0.00 0.00 0.00 0.00 0.00 0.00 0.00 0.00 0.00 0.00 0.00 0.00 0.00 0.00 0.00 0.02 0.00 0.00 0.00 0.00 0.00 0.00 0.00 0.00 0.00 0.00 0.00 0.00
0.03 0.03 0.02 0.02 0.02 0.02 0.02 0.03 0.02 0.02 0.02 0.01 0.01 0.01 0.01 0.01 0.03 0.02 0.00 0.00 0.00 0.00 0.00 0.00 0.00 0.00 0.00 0.00 0.00 0.00 0.00 0.00 0.00 0.00 0.01 0.00 0.00 0.00 0.00 0.00 0.00 0.00 0.00 0.00 0.00 0.00 0.00
0.03 0.03 0.03 0.03 0.02 0.02 0.02 0.03 0.03 0.03 0.02 0.01 0.01 0.01 0.01 0.02 0.04 0.01 0.00 0.00 0.00 0.00 0.00 0.00 0.00 0.00 0.00 0.00 0.00 0.00 0.00 0.00 0.00 0.00 0.00 0.00 0.00 0.00 0.00 0.00 0.00 0.00 0.00 0.00 0.00 0.00 0.00
0.04 0.03 0.03 0.03 0.03 0.02 0.02 0.02 0.03 0.03 0.02 0.02 0.01 0.00 0.01 0.04 0.02 0.00 0.00 0.00 0.00 0.00 0.00 0.00 0.00 0.00 0.00 0.00 0.00 0.00 0.00 0.00 0.00 0.00 0.00 0.00 0.00 0.00 0.00 0.00 0.00 0.01 0.00 0.00 0.00 0.00 0.02
0.04 0.04 0.04 0.04 0.03 0.03 0.02 0.03 0.03 0.03 0.03 0.02 0.01 0.00 0.01 0.04 0.01 0.00 0.00 0.00 0.00 0.00 0.00 0.00 0.00 0.00 0.00 0.00 0.00 0.00 0.00 0.00 0.00 0.00 0.00 0.00 0.00 0.00 0.00 0.00 0.00 0.00 0.00 0.00 0.00 0.00 0.00
0.05 0.05 0.05 0.05 0.05 0.04 0.04 0.03 0.03 0.03 0.03 0.03 0.02 0.01 0.03 0.05 0.02 0.00 0.01 0.01 0.04 0.01 0.00 0.00 0.00 0.00 0.00 0.00 0.00 0.00 0.00 0.00 0.00 0.00 0.00 0.00 0.00 0.01 0.01 0.00 0.00 0.00 0.00 0.00 0.00 0.00 0.00
0.06 0.06 0.06 0.06 0.05 0.05 0.05 0.05 0.05 0.05 0.04 0.04 0.03 0.02 0.04 0.02 0.01 0.01 0.02 0.07 0.07 0.01 0.00 0.00 0.00 0.00 0.00 0.00 0.00 0.00 0.00 0.00 0.00 0.00 0.00 0.00 0.00 0.01 0.01 0.00 0.00 0.00 0.00 0.00 0.02 0.00 0.00
0.08 0.07 0.07 0.07 0.07 0.05 0.04 0.05 0.05 0.05 0.06 0.06 0.06 0.06 0.06 0.03 0.00 0.02 0.08 0.18 0.04 0.00 0.00 0.00 0.00 0.00 0.00 0.00 0.00 0.00 0.00 0.00 0.00 0.00 0.00 0.00 0.00 0.00 0.00 0.00 0.00 0.00 0.00 0.02 0.05 0.02 0.02
0.18 0.13 0.09 0.09 0.10 0.09 0.07 0.06 0.06 0.06 0.06 0.09 0.17 0.12 0.10 0.03 0.01 0.04 0.24 0.21 0.02 0.00 0.00 0.00 0.00 0.00 0.00 0.00 0.00 0.00 0.00 0.00 0.00 0.00 0.00 0.00 0.00 0.01 0.00 0.00 0.00 0.01 0.02 0.00 0.00 0.00 0.00
0.18 0.19 0.17 0.11 0.10 0.10 0.11 0.11 0.09 0.10 0.11 0.16 0.19 0.18 0.07 0.01 0.06 0.25 0.41 0.11 0.00 0.00 0.00 0.00 0.00 0.00 0.00 0.00 0.00 0.00 0.00 0.00 0.00 0.00 0.00 0.00 0.00 0.01 0.00 0.00 0.00 0.00 0.00 0.00 0.00 0.00 0.01
0.16 0.18 0.19 0.19 0.15 0.12 0.11 0.12 0.16 0.16 0.16 0.24 0.27 0.36 0.06 0.04 0.31 0.46 0.28 0.04 0.00 0.00 0.00 0.00 0.00 0.00 0.00 0.00 0.00 0.00 0.00 0.00 0.00 0.00 0.00 0.00 0.01 0.07 0.00 0.00 0.00 0.00 0.00 0.00 0.00 0.00 0.00
0.14 0.16 0.18 0.19 0.20 0.17 0.15 0.14 0.16 0.21 0.20 0.47 0.47 0.38 0.06 0.11 0.28 0.19 0.05 0.00 0.00 0.00 0.00 0.00 0.00 0.00 0.00 0.00 0.00 0.00 0.00 0.00 0.00 0.00 0.00 0.00 0.00 0.01 0.01 0.01 0.01 0.00 0.00 0.01 0.00 0.00 0.00
0.13 0.14 0.16 0.20 0.24 0.24 0.22 0.18 0.17 0.21 0.32 0.57 0.67 0.36 0.37 0.16 0.09 0.04 0.01 0.00 0.00 0.00 0.00 0.00 0.00 0.00 0.00 0.00 0.00 0.00 0.00 0.00 0.00 0.00 0.00 0.00 0.00 0.00 0.00 0.02 0.01 0.00 0.00 0.00 0.00 0.00 0.00
0.29 0.21 0.17 0.22 0.27 0.28 0.28 0.29 0.30 0.33 0.44 0.67 0.78 0.57 0.83 0.39 0.02 0.00 0.01 0.01 0.00 0.00 0.00 0.00 0.00 0.00 0.01 0.00 0.00 0.00 0.00 0.00 0.00 0.00 0.00 0.00 0.00 0.00 0.00 0.00 0.00 0.00 0.00 0.00 0.00 0.00 0.00
0.34 0.36 0.33 0.29 0.35 0.41 0.35 0.37 0.41 0.50 0.66 1.25 1.10 0.31 0.27 0.20 0.03 0.01 0.00 0.00 0.00 0.00 0.00 0.00 0.00 0.02 0.02 0.01 0.00 0.00 0.00 0.00 0.00 0.00 0.00 0.00 0.00 0.00 0.00 0.00 0.00 0.00 0.00 0.00 0.00 0.00 0.00
0.27 0.29 0.34 0.40 0.43 0.51 0.54 0.51 0.50 0.64 1.00 1.89 1.06 0.12 0.05 0.02 0.01 0.01 0.02 0.00 0.00 0.00 0.00 0.00 0.00 0.00 0.02 0.02 0.00 0.01 0.00 0.00 0.00 0.00 0.00 0.00 0.00 0.00 0.00 0.00 0.00 0.00 0.00 0.00 0.00 0.00 0.00
0.28 0.28 0.31 0.40 0.48 0.53 0.63 0.65 0.68 0.81 1.45 2.62 0.85 0.04 0.07 0.04 0.04 0.02 0.01 0.00 0.00 0.00 0.00 0.00 0.00 0.00 0.02 0.03 0.04 0.05 0.01 0.00 0.00 0.00 0.00 0.00 0.00 0.00 0.00 0.00 0.00 0.00 0.00 0.00 0.00 0.00 0.00
0.28 0.31 0.31 0.38 0.47 0.53 0.60 0.71 0.81 0.94 1.30 1.50 0.34 0.06 0.21 0.12 0.07 0.01 0.00 0.00 0.00 0.00 0.00 0.00 0.00 0.00 0.00 0.01 0.04 0.08 0.02 0.00 0.01 0.01 0.00 0.00 0.00 0.00 0.00 0.00 0.00 0.00 0.00 0.00 0.00 0.00 0.00
0.31 0.33 0.38 0.37 0.42 0.46 0.62 0.64 0.82 0.97 0.96 0.76 0.10 0.07 0.31 0.16 0.04 0.02 0.00 0.00 0.00 0.00 0.00 0.00 0.00 0.00 0.00 0.03 0.09 0.12 0.11 0.07 0.05 0.03 0.01 0.01 0.02 0.03 0.02 0.01 0.00 0.00 0.00 0.00 0.00 0.00 0.00
0.32 0.33 0.41 0.40 0.38 0.40 0.52 0.64 0.57 0.86 1.06 0.69 0.18 0.09 0.38 0.32 0.05 0.02 0.02 0.00 0.00 0.00 0.02 0.02 0.03 0.03 0.03 0.06 0.14 0.12 0.11 0.06 0.05 0.05 0.03 0.01 0.01 0.06 0.02 0.01 0.00 0.00 0.00 0.00 0.00 0.00 0.00
0.34 0.34 0.36 0.42 0.39 0.40 0.41 0.52 0.43 0.51 1.10 0.85 0.38 0.26 0.47 0.49 0.18 0.08 0.07 0.02 0.00 0.01 0.05 0.02 0.11 0.20 0.18 0.22 0.14 0.08 0.03 0.02 0.05 0.11 0.04 0.02 0.03 0.06 0.04 0.02 0.00 0.00 0.00 0.00 0.00 0.00 0.00
0.38 0.33 0.33 0.35 0.43 0.40 0.34 0.47 0.39 0.35 0.62 0.99 0.50 0.47 0.45 0.42 0.20 0.26 0.12 0.06 0.02 0.02 0.05 0.04 0.10 0.18 0.29 0.33 0.18 0.08 0.02 0.01 0.01 0.04 0.15 0.08 0.04 0.03 0.04 0.04 0.01 0.00 0.00 0.00 0.00 0.00 0.00
0.39 0.31 0.28 0.33 0.37 0.42 0.34 0.40 0.37 0.31 0.44 0.64 0.62 0.61 0.58 0.54 0.35 0.22 0.22 0.09 0.02 0.01 0.02 0.12 0.05 0.03 0.09 0.14 0.12 0.09 0.08 0.04 0.00 0.00 0.02 0.16 0.12 0.08 0.02 0.01 0.00 0.00 0.00 0.00 0.00 0.00 0.00

GFSGBSN_prec_precacc24_075.txt.gz
Total_Precipitation_Accumulation
0.02 0.02 0.03 0.02 0.02 0.01 0.01 0.01 0.01 0.01 0.01 0.01 0.00 0.00 0.00 0.00 0.00 0.00 0.00 0.00 0.00 0.00 0.00 0.00 0.00 0.00 0.00 0.00 0.00 0.00 0.00 0.00 0.00 0.00 0.00 0.00 0.00 0.00 0.00 0.00 0.00 0.00 0.00 0.00 0.00 0.00 0.00
0.02 0.02 0.02 0.02 0.02 0.01 0.01 0.01 0.01 0.01 0.00 0.00 0.00 0.00 0.00 0.00 0.00 0.00 0.00 0.00 0.00 0.00 0.00 0.00 0.00 0.00 0.00 0.00 0.00 0.00 0.00 0.00 0.00 0.00 0.00 0.00 0.00 0.00 0.00 0.00 0.00 0.00 0.00 0.00 0.00 0.00 0.00
0.03 0.03 0.02 0.02 0.02 0.02 0.01 0.01 0.01 0.01 0.01 0.01 0.00 0.00 0.00 0.01 0.01 0.01 0.01 0.00 0.00 0.00 0.00 0.00 0.00 0.00 0.00 0.00 0.00 0.00 0.00 0.00 0.00 0.00 0.00 0.00 0.00 0.00 0.00 0.00 0.00 0.00 0.00 0.00 0.04 0.02 0.00
0.03 0.02 0.03 0.02 0.02 0.02 0.02 0.01 0.01 0.01 0.01 0.00 0.01 0.01 0.00 0.00 0.01 0.00 0.00 0.00 0.00 0.00 0.00 0.00 0.00 0.00 0.00 0.00 0.00 0.00 0.00 0.00 0.00 0.00 0.00 0.00 0.00 0.00 0.00 0.00 0.00 0.00 0.00 0.00 0.05 0.01 0.00
0.03 0.03 0.02 0.02 0.02 0.02 0.02 0.02 0.01 0.01 0.01 0.01 0.00 0.00 0.00 0.00 0.00 0.01 0.00 0.00 0.00 0.00 0.00 0.00 0.00 0.00 0.00 0.00 0.00 0.00 0.00 0.00 0.00 0.00 0.00 0.00 0.00 0.00 0.00 0.01 0.00 0.00 0.00 0.00 0.00 0.00 0.00
0.03 0.03 0.03 0.02 0.02 0.02 0.02 0.02 0.02 0.01 0.01 0.01 0.00 0.00 0.00 0.00 0.01 0.01 0.00 0.00 0.00 0.00 0.00 0.00 0.00 0.00 0.00 0.00 0.00 0.00 0.00 0.00 0.00 0.00 0.00 0.00 0.00 0.00 0.00 0.00 0.00 0.00 0.00 0.00 0.00 0.00 0.00
0.03 0.03 0.03 0.03 0.02 0.02 0.02 0.03 0.03 0.02 0.01 0.01 0.01 0.00 0.00 0.01 0.01 0.02 0.00 0.00 0.00 0.00 0.00 0.00 0.00 0.00 0.00 0.00 0.00 0.00 0.00 0.00 0.00 0.00 0.01 0.00 0.00 0.00 0.00 0.00 0.00 0.00 0.00 0.00 0.00 0.00 0.00
0.02 0.03 0.02 0.02 0.02 0.02 0.02 0.03 0.02 0.03 0.02 0.01 0.01 0.01 0.01 0.01 0.03 0.02 0.00 0.00 0.00 0.00 0.00 0.00 0.00 0.00 0.00 0.00 0.00 0.00 0.00 0.00 0.00 0.00 0.00 0.00 0.00 0.00 0.00 0.00 0.00 0.00 0.00 0.00 0.00 0.00 0.00
0.03 0.02 0.03 0.03 0.02 0.02 0.02 0.03 0.03 0.03 0.02 0.02 0.01 0.01 0.01 0.02 0.04 0.01 0.00 0.00 0.00 0.00 0.00 0.00 0.00 0.00 0.00 0.00 0.00 0.00 0.00 0.00 0.00 0.00 0.00 0.00 0.00 0.00 0.00 0.00 0.00 0.00 0.00 0.00 0.00 0.00 0.00
0.03 0.03 0.02 0.03 0.03 0.02 0.02 0.02 0.03 0.03 0.03 0.02 0.01 0.00 0.01 0.04 0.02 0.00 0.00 0.00 0.00 0.00 0.00 0.00 0.00 0.00 0.00 0.00 0.00 0.00 0.00 0.00 0.00 0.00 0.00 0.00 0.00 0.00 0.00 0.00 0.00 0.00 0.00 0.00 0.00 0.00 0.02
0.04 0.04 0.03 0.03 0.03 0.03 0.02 0.03 0.03 0.03 0.03 0.02 0.01 0.00 0.01 0.04 0.01 0.00 0.00 0.00 0.00 0.01 0.00 0.00 0.00 0.00 0.00 0.00 0.00 0.00 0.00 0.00 0.00 0.00 0.00 0.00 0.00 0.00 0.00 0.00 0.00 0.00 0.00 0.00 0.00 0.00 0.00
0.05 0.05 0.05 0.04 0.04 0.04 0.04 0.03 0.03 0.03 0.03 0.02 0.02 0.01 0.03 0.05 0.02 0.00 0.01 0.02 0.07 0.01 0.00 0.00 0.00 0.00 0.00 0.00 0.00 0.00 0.00 0.00 0.00 0.00 0.00 0.00 0.00 0.00 0.00 0.00 0.00 0.00 0.00 0.00 0.00 0.00 0.00
0.05 0.05 0.05 0.05 0.05 0.04 0.05 0.05 0.05 0.05 0.05 0.04 0.03 0.03 0.05 0.02 0.01 0.01 0.02 0.09 0.10 0.01 0.00 0.00 0.00 0.00 0.00 0.00 0.00 0.00 0.00 0.00 0.00 0.00 0.00 0.00 0.00 0.00 0.00 0.00 0.00 0.00 0.00 0.00 0.02 0.00 0.00
0.07 0.06 0.06 0.06 0.06 0.05 0.04 0.05 0.05 0.05 0.06 0.05 0.04 0.06 0.07 0.03 0.00 0.02 0.09 0.19 0.07 0.00 0.00 0.00 0.00 0.00 0.00 0.00 0.00 0.00 0.00 0.00 0.00 0.00 0.00 0.00 0.00 0.00 0.00 0.00 0.00 0.00 0.00 0.02 0.05 0.01 0.02
0.16 0.11 0.07 0.07 0.09 0.08 0.07 0.06 0.06 0.06 0.06 0.07 0.12 0.14 0.12 0.03 0.01 0.05 0.25 0.23 0.02 0.00 0.00 0.00 0.00 0.00 0.00 0.00 0.00 0.00 0.00 0.00 0.00 0.00 0.00 0.00 0.00 0.00 0.00 0.00 0.00 0.00 0.00 0.00 0.00 0.00 0.01
0.15 0.17 0.15 0.10 0.08 0.08 0.10 0.11 0.10 0.11 0.12 0.14 0.20 0.21 0.08 0.02 0.06 0.27 0.44 0.13 0.00 0.00 0.00 0.00 0.00 0.00 0.00 0.00 0.00 0.00 0.00 0.00 0.00 0.00 0.00 0.00 0.00 0.00 0.00 0.00 0.00 0.00 0.00 0.00 0.00 0.00 0.01
0.14 0.16 0.18 0.17 0.13 0.10 0.09 0.12 0.16 0.17 0.17 0.25 0.37 0.44 0.09 0.04 0.33 0.48 0.29 0.04 0.00 0.00 0.00 0.00 0.00 0.00 0.00 0.00 0.00 0.01 0.00 0.00 0.00 0.00 0.00 0.00 0.00 0.00 0.00 0.00 0.00 0.00 0.00 0.00 0.00 0.00 0.00
0.12 0.13 0.16 0.17 0.17 0.16 0.12 0.12 0.17 0.23 0.28 0.65 0.79 0.57 0.10 0.12 0.32 0.20 0.06 0.00 0.00 0.00 0.00 0.00 0.00 0.00 0.00 0.00 0.00 0.01 0.00 0.00 0.00 0.00 0.00 0.00 0.00 0.00 0.00 0.00 0.00 0.00 0.00 0.00 0.00 0.00 0.00
0.12 0.13 0.13 0.16 0.19 0.21 0.19 0.17 0.19 0.27 0.47 0.82 1.03 0.49 0.32 0.18 0.12 0.05 0.01 0.01 0.00 0.00 0.00 0.00 0.00 0.00 0.00 0.00 0.01 0.01 0.00 0.00 0.00 0.00 0.00 0.00 0.00 0.01 0.00 0.01 0.01 0.00 0.00 0.00 0.00 0.00 0.00
0.29 0.20 0.16 0.17 0.20 0.23 0.27 0.28 0.31 0.39 0.58 0.95 1.14 0.69 0.77 0.38 0.03 0.00 0.01 0.01 0.00 0.00 0.00 0.00 0.00 0.00 0.02 0.02 0.03 0.05 0.01 0.01 0.00 0.00 0.00 0.00 0.01 0.00 0.00 0.00 0.00 0.00 0.00 0.00 0.00 0.00 0.00
0.35 0.36 0.33 0.27 0.26 0.27 0.30 0.37 0.42 0.56 0.80 1.57 1.48 0.38 0.26 0.23 0.07 0.02 0.00 0.00 0.00 0.00 0.00 0.00 0.00 0.02 0.03 0.03 0.03 0.03 0.06 0.02 0.00 0.00 0.00 0.00 0.00 0.00 0.00 0.00 0.00 0.00 0.00 0.00 0.00 0.00 0.00
0.26 0.29 0.32 0.37 0.37 0.38 0.38 0.46 0.48 0.67 1.14 2.19 1.36 0.14 0.04 0.02 0.01 0.03 0.02 0.01 0.00 0.00 0.00 0.00 0.00 0.00 0.02 0.05 0.03 0.03 0.07 0.13 0.01 0.00 0.00 0.00 0.00 0.00 0.00 0.00 0.00 0.00 0.00 0.00 0.00 0.00 0.00
0.28 0.27 0.30 0.37 0.45 0.47 0.54 0.58 0.67 0.83 1.60 3.05 1.10 0.05 0.06 0.04 0.05 0.03 0.01 0.00 0.00 0.00 0.00 0.00 0.00 0.00 0.02 0.04 0.06 0.11 0.07 0.05 0.02 0.01 0.00 0.00 0.00 0.00 0.00 0.00 0.00 0.00 0.00 0.00 0.00 0.00 0.00
0.29 0.30 0.29 0.34 0.43 0.49 0.56 0.67 0.82 1.01 1.48 1.81 0.45 0.05 0.18 0.16 0.08 0.02 0.00 0.00 0.00 0.00 0.00 0.00 0.00 0.00 0.00 0.01 0.10 0.15 0.12 0.15 0.05 0.00 0.00 0.00 0.00 0.00 0.00 0.00 0.00 0.00 0.00 0.00 0.00 0.00 0.00
0.32 0.32 0.31 0.31 0.40 0.43 0.59 0.60 0.82 1.08 1.10 0.93 0.18 0.05 0.21 0.14 0.05 0.02 0.01 0.00 0.00 0.00 0.00 0.00 0.00 0.00 0.00 0.04 0.16 0.17 0.24 0.16 0.12 0.03 0.01 0.00 0.00 0.04 0.02 0.01 0.00 0.00 0.00 0.00 0.00 0.00 0.00
0.32 0.34 0.36 0.33 0.33 0.38 0.50 0.62 0.57 0.92 1.25 0.86 0.36 0.11 0.21 0.22 0.05 0.02 0.02 0.01 0.00 0.00 0.01 0.00 0.00 0.00 0.01 0.06 0.19 0.15 0.22 0.13 0.08 0.08 0.03 0.01 0.02 0.07 0.04 0.02 0.00 0.00 0.00 0.00 0.00 0.00 0.00
0.35 0.35 0.34 0.36 0.34 0.37 0.40 0.53 0.45 0.53 1.22 1.24 0.67 0.33 0.30 0.32 0.17 0.08 0.07 0.02 0.00 0.00 0.02 0.01 0.03 0.07 0.10 0.22 0.17 0.09 0.04 0.07 0.09 0.13 0.05 0.02 0.05 0.06 0.05 0.05 0.01 0.00 0.00 0.00 0.00 0.00 0.00
0.39 0.34 0.32 0.31 0.41 0.41 0.35 0.47 0.41 0.37 0.66 1.36 1.11 0.59 0.33 0.39 0.20 0.26 0.13 0.06 0.02 0.02 0.04 0.01 0.08 0.11 0.19 0.31 0.20 0.10 0.03 0.01 0.01 0.05 0.17 0.10 0.05 0.04 0.04 0.04 0.02 0.00 0.00 0.00 0.00 0.00 0.00
0.40 0.31 0.28 0.32 0.38 0.44 0.37 0.42 0.39 0.33 0.47 0.82 1.33 0.85 0.45 0.45 0.31 0.22 0.22 0.09 0.02 0.00 0.00 0.02 0.02 0.02 0.09 0.16 0.13 0.10 0.08 0.04 0.00 0.00 0.02 0.17 0.15 0.10 0.03 0.01 0.00 0.00 0.00 0.00 0.00 0.00 0.00

GFSGBSN_prec_precacc24_078.txt.gz
Total_Precipitation_Accumulation
0.02 0.02 0.03 0.02 0.02 0.01 0.01 0.01 0.01 0.01 0.01 0.01 0.00 0.00 0.00 0.00 0.00 0.00 0.00 0.00 0.00 0.00 0.00 0.00 0.00 0.00 0.00 0.00 0.00 0.00 0.00 0.00 0.00 0.00 0.00 0.00 0.00 0.00 0.00 0.00 0.00 0.00 0.00 0.00 0.00 0.00 0.00
0.03 0.03 0.02 0.02 0.02 0.01 0.01 0.01 0.01 0.01 0.00 0.00 0.00 0.00 0.00 0.00 0.00 0.00 0.00 0.00 0.00 0.00 0.00 0.00 0.00 0.00 0.00 0.00 0.00 0.00 0.00 0.00 0.00 0.00 0.00 0.00 0.00 0.00 0.00 0.00 0.00 0.00 0.00 0.00 0.00 0.00 0.00
0.03 0.03 0.03 0.02 0.02 0.02 0.01 0.01 0.01 0.00 0.01 0.01 0.00 0.00 0.00 0.01 0.01 0.01 0.01 0.00 0.00 0.00 0.00 0.00 0.00 0.00 0.00 0.00 0.00 0.00 0.00 0.00 0.00 0.00 0.00 0.00 0.00 0.00 0.00 0.00 0.00 0.00 0.00 0.00 0.04 0.02 0.00
0.03 0.02 0.03 0.03 0.03 0.02 0.02 0.01 0.01 0.01 0.00 0.00 0.01 0.01 0.00 0.00 0.01 0.00 0.00 0.00 0.00 0.00 0.00 0.00 0.00 0.00 0.00 0.00 0.00 0.00 0.00 0.00 0.00 0.00 0.00 0.00 0.00 0.00 0.00 0.00 0.00 0.00 0.00 0.00 0.05 0.00 0.00
0.03 0.03 0.02 0.02 0.02 0.02 0.02 0.02 0.01 0.01 0.00 0.00 0.00 0.00 0.00 0.00 0.00 0.01 0.00 0.00 0.00 0.00 0.00 0.00 0.00 0.00 0.00 0.00 0.00 0.00 0.00 0.00 0.00 0.00 0.00 0.00 0.00 0.00 0.00 0.01 0.00 0.00 0.00 0.00 0.00 0.00 0.00
0.03 0.03 0.03 0.02 0.02 0.02 0.02 0.02 0.02 0.01 0.01 0.00 0.00 0.00 0.00 0.00 0.01 0.01 0.00 0.00 0.00 0.00 0.00 0.00 0.00 0.00 0.00 0.00 0.00 0.00 0.00 0.00 0.00 0.00 0.00 0.00 0.00 0.00 0.00 0.00 0.00 0.00 0.00 0.00 0.00 0.00 0.00
0.03 0.03 0.03 0.03 0.02 0.02 0.02 0.03 0.03 0.02 0.01 0.01 0.00 0.00 0.00 0.01 0.01 0.02 0.00 0.00 0.00 0.00 0.00 0.00 0.00 0.00 0.00 0.00 0.00 0.00 0.00 0.00 0.00 0.00 0.00 0.00 0.00 0.00 0.00 0.00 0.00 0.00 0.00 0.00 0.00 0.00 0.00
0.03 0.03 0.02 0.02 0.03 0.02 0.02 0.02 0.03 0.03 0.02 0.01 0.01 0.01 0.01 0.01 0.03 0.02 0.00 0.00 0.00 0.00 0.00 0.00 0.00 0.00 0.00 0.00 0.00 0.00 0.00 0.00 0.00 0.00 0.00 0.00 0.00 0.00 0.00 0.00 0.00 0.00 0.00 0.00 0.00 0.00 0.00
0.03 0.03 0.02 0.02 0.02 0.02 0.02 0.03 0.03 0.03 0.02 0.02 0.01 0.01 0.01 0.02 0.04 0.01 0.00 0.00 0.00 0.00 0.00 0.00 0.00 0.00 0.00 0.00 0.00 0.00 0.00 0.00 0.00 0.00 0.00 0.00 0.00 0.00 0.00 0.00 0.00 0.00 0.00 0.00 0.00 0.00 0.00
0.04 0.03 0.03 0.02 0.02 0.02 0.02 0.03 0.03 0.03 0.03 0.02 0.01 0.01 0.01 0.04 0.02 0.00 0.00 0.00 0.00 0.00 0.00 0.00 0.00 0.00 0.00 0.00 0.00 0.00 0.00 0.00 0.00 0.00 0.00 0.00 0.00 0.00 0.00 0.00 0.00 0.00 0.00 0.00 0.00 0.00 0.02
0.04 0.04 0.04 0.03 0.03 0.03 0.03 0.03 0.03 0.03 0.03 0.02 0.01 0.00 0.01 0.04 0.01 0.00 0.00 0.00 0.00 0.01 0.00 0.00 0.00 0.00 0.00 0.00 0.00 0.00 0.00 0.00 0.00 0.00 0.00 0.00 0.00 0.00 0.00 0.00 0.00 0.00 0.00 0.00 0.00 0.00 0.00
0.04 0.05 0.05 0.04 0.04 0.03 0.04 0.04 0.03 0.03 0.03 0.03 0.02 0.01 0.04 0.05 0.02 0.00 0.01 0.02 0.08 0.02 0.00 0.00 0.00 0.00 0.00 0.00 0.00 0.00 0.00 0.00 0.00 0.00 0.00 0.00 0.00 0.00 0.00 0.00 0.00 0.00 0.00 0.00 0.00 0.00 0.00
0.03 0.03 0.04 0.04 0.04 0.04 0.04 0.05 0.05 0.06 0.05 0.04 0.03 0.02 0.05 0.03 0.01 0.01 0.02 0.09 0.12 0.01 0.00 0.00 0.00 0.00 0.00 0.00 0.00 0.00 0.00 0.00 0.00 0.00 0.00 0.00 0.00 0.00 0.00 0.00 0.00 0.00 0.00 0.00 0.02 0.00 0.00
0.05 0.05 0.05 0.05 0.04 0.03 0.04 0.04 0.04 0.05 0.06 0.05 0.05 0.06 0.08 0.04 0.00 0.02 0.09 0.20 0.08 0.00 0.00 0.00 0.00 0.00 0.00 0.00 0.00 0.00 0.00 0.00 0.00 0.00 0.00 0.00 0.00 0.00 0.00 0.00 0.00 0.00 0.00 0.02 0.05 0.01 0.02
0.09 0.08 0.06 0.06 0.07 0.06 0.05 0.05 0.06 0.06 0.06 0.07 0.13 0.13 0.13 0.03 0.01 0.05 0.25 0.23 0.03 0.00 0.00 0.00 0.00 0.00 0.00 0.00 0.00 0.00 0.00 0.00 0.00 0.00 0.00 0.00 0.00 0.00 0.00 0.00 0.00 0.00 0.00 0.00 0.00 0.00 0.01
0.11 0.10 0.08 0.07 0.07 0.07 0.08 0.09 0.09 0.11 0.14 0.17 0.23 0.20 0.08 0.02 0.07 0.27 0.45 0.14 0.00 0.00 0.00 0.00 0.00 0.00 0.00 0.00 0.00 0.00 0.00 0.00 0.00 0.00 0.00 0.00 0.00 0.00 0.00 0.00 0.00 0.00 0.00 0.00 0.00 0.00 0.01
0.12 0.12 0.11 0.13 0.11 0.07 0.07 0.10 0.14 0.18 0.19 0.30 0.41 0.47 0.10 0.04 0.36 0.51 0.30 0.04 0.00 0.00 0.00 0.00 0.00 0.00 0.00 0.00 0.01 0.03 0.00 0.00 0.00 0.00 0.00 0.00 0.00 0.00 0.00 0.00 0.00 0.00 0.00 0.00 0.00 0.00 0.00
0.11 0.12 0.12 0.12 0.15 0.13 0.10 0.09 0.14 0.23 0.33 0.77 0.97 0.73 0.13 0.12 0.45 0.27 0.06 0.00 0.00 0.00 0.00 0.00 0.00 0.00 0.00 0.00 0.00 0.02 0.01 0.00 0.00 0.00 0.00 0.00 0.00 0.00 0.00 0.00 0.00 0.00 0.00 0.00 0.00 0.00 0.00
0.12 0.12 0.12 0.15 0.16 0.19 0.16 0.14 0.15 0.26 0.58 1.05 1.30 0.59 0.36 0.18 0.17 0.07 0.02 0.01 0.00 0.00 0.00 0.00 0.00 0.00 0.00 0.00 0.02 0.01 0.03 0.00 0.00 0.00 0.00 0.00 0.00 0.01 0.00 0.00 0.00 0.00 0.00 0.00 0.00 0.00 0.00
0.29 0.20 0.17 0.17 0.20 0.22 0.26 0.25 0.27 0.40 0.75 1.35 1.42 0.75 0.85 0.49 0.04 0.01 0.02 0.03 0.01 0.00 0.00 0.00 0.00 0.00 0.02 0.02 0.03 0.06 0.03 0.05 0.00 0.00 0.00 0.00 0.01 0.00 0.00 0.00 0.00 0.00 0.00 0.00 0.00 0.00 0.00
0.35 0.37 0.34 0.29 0.28 0.29 0.31 0.38 0.42 0.57 1.03 2.07 1.83 0.45 0.28 0.32 0.12 0.02 0.01 0.01 0.00 0.00 0.00 0.00 0.00 0.02 0.03 0.04 0.03 0.03 0.10 0.09 0.06 0.00 0.00 0.00 0.00 0.00 0.00 0.00 0.00 0.00 0.00 0.00 0.00 0.00 0.00
0.28 0.30 0.34 0.38 0.39 0.39 0.38 0.45 0.50 0.71 1.44 2.74 1.61 0.17 0.04 0.02 0.02 0.04 0.03 0.01 0.00 0.00 0.00 0.00 0.00 0.00 0.02 0.05 0.03 0.03 0.08 0.27 0.19 0.11 0.01 0.00 0.00 0.00 0.00 0.00 0.00 0.00 0.00 0.00 0.00 0.00 0.00
0.30 0.28 0.31 0.37 0.46 0.47 0.49 0.50 0.61 0.85 1.94 3.58 1.24 0.06 0.06 0.05 0.05 0.04 0.03 0.01 0.00 0.00 0.00 0.00 0.00 0.00 0.02 0.04 0.06 0.11 0.09 0.13 0.24 0.31 0.10 0.01 0.00 0.00 0.01 0.00 0.00 0.01 0.00 0.00 0.00 0.00 0.00
0.31 0.31 0.30 0.35 0.42 0.49 0.50 0.58 0.68 0.93 1.74 2.11 0.51 0.05 0.18 0.18 0.08 0.02 0.00 0.00 0.00 0.00 0.00 0.00 0.00 0.00 0.00 0.01 0.11 0.18 0.14 0.18 0.12 0.09 0.19 0.05 0.00 0.00 0.00 0.01 0.08 0.02 0.00 0.00 0.00 0.00 0.00
0.33 0.32 0.31 0.31 0.40 0.44 0.55 0.49 0.71 0.96 1.19 1.13 0.31 0.06 0.17 0.13 0.06 0.03 0.01 0.00 0.00 0.00 0.00 0.00 0.00 0.00 0.00 0.03 0.15 0.17 0.22 0.12 0.12 0.05 0.02 0.08 0.02 0.04 0.02 0.02 0.04 0.00 0.00 0.00 0.00 0.00 0.00
0.33 0.34 0.35 0.32 0.32 0.36 0.48 0.56 0.51 0.89 1.29 1.03 0.57 0.16 0.19 0.22 0.06 0.02 0.03 0.01 0.00 0.00 0.01 0.00 0.00 0.00 0.00 0.05 0.16 0.14 0.22 0.13 0.09 0.10 0.04 0.04 0.04 0.08 0.04 0.02 0.00 0.00 0.00 0.00 0.00 0.00 0.00
0.35 0.35 0.34 0.35 0.34 0.36 0.38 0.48 0.41 0.53 1.21 1.42 0.91 0.42 0.34 0.38 0.14 0.07 0.08 0.02 0.00 0.00 0.01 0.01 0.02 0.06 0.03 0.13 0.11 0.08 0.04 0.07 0.14 0.18 0.18 0.23 0.11 0.07 0.05 0.05 0.01 0.00 0.00 0.00 0.00 0.00 0.00
0.40 0.35 0.33 0.31 0.36 0.37 0.34 0.46 0.39 0.36 0.67 1.49 1.43 0.70 0.40 0.47 0.18 0.22 0.11 0.06 0.02 0.02 0.03 0.01 0.08 0.10 0.13 0.12 0.10 0.05 0.02 0.01 0.01 0.05 0.21 0.24 0.16 0.07 0.07 0.06 0.02 0.00 0.00 0.00 0.00 0.00 0.00
0.41 0.32 0.28 0.28 0.31 0.42 0.37 0.43 0.38 0.33 0.48 0.91 1.71 1.25 0.46 0.51 0.32 0.20 0.21 0.09 0.02 0.00 0.00 0.02 0.02 0.02 0.03 0.05 0.03 0.04 0.06 0.04 0.00 0.00 0.03 0.19 0.20 0.13 0.03 0.01 0.01 0.01 0.00 0.00 0.00 0.00 0.00

GFSGBSN_prec_precacc24_084.txt.gz
Total_Precipitation_Accumulation
0.04 0.04 0.04 0.03 0.02 0.02 0.01 0.01 0.01 0.01 0.00 0.00 0.00 0.00 0.00 0.00 0.00 0.00 0.00 0.00 0.00 0.00 0.00 0.00 0.00 0.00 0.00 0.00 0.00 0.00 0.00 0.00 0.00 0.00 0.00 0.00 0.00 0.00 0.00 0.00 0.00 0.00 0.00 0.00 0.00 0.00 0.00
0.03 0.03 0.03 0.03 0.03 0.02 0.02 0.02 0.01 0.01 0.00 0.00 0.00 0.00 0.00 0.00 0.00 0.00 0.00 0.00 0.00 0.00 0.00 0.00 0.00 0.00 0.00 0.00 0.00 0.00 0.00 0.00 0.00 0.00 0.00 0.00 0.00 0.00 0.00 0.00 0.00 0.00 0.00 0.00 0.00 0.00 0.00
0.03 0.03 0.02 0.03 0.02 0.02 0.02 0.01 0.01 0.01 0.01 0.00 0.00 0.00 0.00 0.01 0.01 0.01 0.01 0.00 0.00 0.00 0.00 0.00 0.00 0.00 0.00 0.00 0.00 0.00 0.00 0.00 0.00 0.00 0.00 0.00 0.00 0.00 0.00 0.00 0.00 0.00 0.00 0.00 0.04 0.02 0.00
0.03 0.02 0.03 0.03 0.03 0.02 0.02 0.01 0.01 0.01 0.01 0.00 0.01 0.00 0.00 0.00 0.01 0.00 0.00 0.00 0.00 0.00 0.00 0.00 0.00 0.00 0.00 0.00 0.00 0.00 0.00 0.00 0.00 0.00 0.00 0.00 0.00 0.00 0.00 0.00 0.00 0.00 0.00 0.00 0.05 0.00 0.00
0.03 0.03 0.03 0.03 0.03 0.02 0.02 0.02 0.01 0.01 0.00 0.01 0.00 0.00 0.00 0.00 0.00 0.01 0.00 0.00 0.00 0.00 0.00 0.00 0.00 0.00 0.00 0.00 0.00 0.00 0.00 0.00 0.00 0.00 0.00 0.00 0.00 0.00 0.00 0.00 0.00 0.00 0.00 0.00 0.00 0.00 0.00
0.03 0.03 0.04 0.03 0.03 0.02 0.02 0.02 0.02 0.01 0.01 0.00 0.00 0.00 0.00 0.00 0.00 0.01 0.00 0.00 0.00 0.00 0.00 0.00 0.00 0.00 0.00 0.00 0.00 0.00 0.00 0.00 0.00 0.00 0.00 0.00 0.00 0.00 0.00 0.00 0.00 0.00 0.00 0.00 0.00 0.00 0.00
0.02 0.02 0.03 0.03 0.02 0.02 0.02 0.02 0.03 0.02 0.01 0.01 0.00 0.00 0.00 0.00 0.01 0.02 0.00 0.00 0.00 0.00 0.00 0.00 0.00 0.00 0.00 0.00 0.00 0.00 0.00 0.00 0.00 0.00 0.00 0.00 0.00 0.00 0.00 0.00 0.00 0.00 0.00 0.00 0.00 0.00 0.00
0.02 0.02 0.02 0.02 0.03 0.02 0.02 0.02 0.02 0.02 0.02 0.01 0.01 0.00 0.00 0.00 0.02 0.02 0.00 0.00 0.00 0.00 0.00 0.00 0.00 0.00 0.00 0.00 0.00 0.00 0.00 0.00 0.00 0.00 0.00 0.00 0.00 0.00 0.00 0.00 0.00 0.00 0.00 0.00 0.00 0.00 0.00
0.03 0.03 0.03 0.03 0.02 0.02 0.03 0.03 0.03 0.03 0.02 0.01 0.01 0.01 0.00 0.00 0.03 0.01 0.00 0.00 0.00 0.00 0.00 0.00 0.00 0.00 0.00 0.00 0.00 0.00 0.00 0.00 0.00 0.00 0.00 0.00 0.00 0.00 0.00 0.00 0.00 0.00 0.00 0.00 0.00 0.00 0.00
0.05 0.04 0.03 0.03 0.03 0.02 0.02 0.02 0.02 0.03 0.02 0.02 0.01 0.01 0.01 0.00 0.01 0.00 0.00 0.00 0.00 0.00 0.00 0.00 0.00 0.00 0.00 0.00 0.00 0.00 0.00 0.00 0.00 0.00 0.00 0.00 0.00 0.00 0.00 0.00 0.00 0.00 0.00 0.00 0.00 0.00 0.02
0.03 0.03 0.03 0.02 0.02 0.03 0.02 0.03 0.02 0.03 0.03 0.03 0.02 0.00 0.00 0.01 0.01 0.00 0.00 0.00 0.00 0.01 0.00 0.00 0.00 0.00 0.00 0.00 0.00 0.00 0.00 0.00 0.00 0.00 0.00 0.00 0.00 0.00 0.00 0.00 0.00 0.00 0.00 0.00 0.00 0.00 0.00
0.06 0.05 0.06 0.06 0.07 0.06 0.04 0.03 0.02 0.02 0.02 0.02 0.02 0.02 0.03 0.02 0.01 0.00 0.01 0.02 0.08 0.02 0.00 0.00 0.00 0.00 0.00 0.00 0.00 0.00 0.00 0.00 0.00 0.00 0.00 0.00 0.00 0.00 0.00 0.00 0.00 0.00 0.00 0.00 0.00 0.00 0.00
0.07 0.06 0.06 0.05 0.05 0.05 0.04 0.03 0.04 0.05 0.04 0.03 0.03 0.02 0.07 0.02 0.01 0.01 0.02 0.09 0.14 0.02 0.00 0.00 0.00 0.00 0.00 0.00 0.00 0.00 0.00 0.00 0.00 0.00 0.00 0.00 0.00 0.00 0.00 0.00 0.00 0.00 0.00 0.00 0.02 0.00 0.00
0.06 0.06 0.05 0.04 0.04 0.04 0.04 0.04 0.05 0.05 0.05 0.05 0.05 0.08 0.08 0.03 0.00 0.02 0.09 0.18 0.09 0.00 0.00 0.00 0.00 0.00 0.00 0.00 0.00 0.00 0.00 0.00 0.00 0.00 0.00 0.00 0.00 0.00 0.00 0.00 0.00 0.00 0.00 0.02 0.05 0.01 0.02
0.13 0.13 0.11 0.10 0.08 0.07 0.07 0.06 0.05 0.05 0.05 0.06 0.16 0.15 0.11 0.03 0.01 0.05 0.24 0.22 0.03 0.00 0.00 0.00 0.00 0.00 0.00 0.00 0.00 0.00 0.00 0.00 0.00 0.00 0.00 0.00 0.00 0.00 0.00 0.00 0.00 0.00 0.00 0.00 0.00 0.00 0.01
0.11 0.11 0.10 0.09 0.09 0.07 0.07 0.07 0.07 0.09 0.12 0.16 0.25 0.20 0.07 0.02 0.07 0.22 0.44 0.13 0.00 0.00 0.00 0.00 0.00 0.00 0.00 0.00 0.00 0.00 0.00 0.00 0.00 0.00 0.00 0.00 0.00 0.00 0.00 0.00 0.00 0.00 0.00 0.00 0.00 0.00 0.01
0.12 0.12 0.13 0.12 0.12 0.10 0.09 0.09 0.10 0.14 0.16 0.32 0.48 0.52 0.11 0.04 0.34 0.42 0.30 0.04 0.00 0.00 0.00 0.00 0.00 0.00 0.00 0.00 0.01 0.03 0.00 0.00 0.00 0.00 0.00 0.00 0.00 0.00 0.00 0.00 0.00 0.00 0.00 0.00 0.00 0.00 0.00
0.11 0.11 0.12 0.13 0.12 0.11 0.11 0.10 0.12 0.16 0.30 0.81 1.08 0.82 0.16 0.11 0.42 0.26 0.06 0.00 0.00 0.00 0.00 0.00 0.00 0.00 0.00 0.00 0.00 0.02 0.01 0.00 0.00 0.00 0.00 0.00 0.00 0.00 0.00 0.00 0.00 0.00 0.00 0.00 0.00 0.00 0.00
0.08 0.09 0.10 0.12 0.15 0.14 0.14 0.15 0.16 0.21 0.55 1.10 1.43 0.65 0.40 0.19 0.18 0.09 0.03 0.02 0.00 0.00 0.00 0.00 0.00 0.00 0.00 0.00 0.02 0.01 0.03 0.00 0.00 0.00 0.00 0.00 0.01 0.01 0.00 0.00 0.00 0.00 0.00 0.00 0.00 0.00 0.00
0.17 0.12 0.11 0.13 0.19 0.21 0.21 0.23 0.27 0.37 0.69 1.41 1.60 0.89 0.95 0.77 0.07 0.01 0.03 0.06 0.03 0.00 0.00 0.00 0.00 0.00 0.02 0.02 0.03 0.06 0.03 0.05 0.00 0.00 0.00 0.05 0.05 0.02 0.02 0.00 0.00 0.00 0.00 0.00 0.00 0.00 0.00
0.16 0.22 0.22 0.20 0.24 0.28 0.31 0.34 0.40 0.54 0.90 2.08 2.06 0.60 0.34 0.48 0.32 0.04 0.01 0.02 0.02 0.02 0.00 0.00 0.00 0.02 0.03 0.04 0.03 0.03 0.10 0.09 0.07 0.02 0.01 0.09 0.11 0.00 0.00 0.00 0.00 0.00 0.00 0.00 0.00 0.00 0.00
0.10 0.10 0.18 0.29 0.34 0.40 0.41 0.47 0.50 0.69 1.26 2.62 1.80 0.25 0.08 0.05 0.02 0.07 0.05 0.03 0.01 0.00 0.00 0.00 0.00 0.00 0.02 0.05 0.03 0.03 0.08 0.27 0.21 0.22 0.15 0.13 0.11 0.01 0.00 0.00 0.00 0.01 0.00 0.00 0.00 0.00 0.00
0.14 0.12 0.13 0.25 0.39 0.46 0.53 0.57 0.68 0.90 1.74 3.25 1.32 0.14 0.13 0.10 0.06 0.07 0.06 0.02 0.01 0.00 0.00 0.00 0.00 0.00 0.02 0.04 0.06 0.11 0.09 0.14 0.27 0.43 0.41 0.26 0.17 0.08 0.03 0.00 0.00 0.04 0.00 0.00 0.00 0.00 0.00
0.20 0.22 0.22 0.30 0.41 0.51 0.55 0.66 0.80 1.07 1.58 1.85 0.59 0.17 0.27 0.31 0.11 0.03 0.00 0.00 0.00 0.00 0.00 0.00 0.00 0.00 0.00 0.01 0.11 0.18 0.14 0.18 0.13 0.11 0.30 0.28 0.29 0.22 0.08 0.03 0.16 0.05 0.00 0.00 0.00 0.00 0.00
0.22 0.24 0.25 0.35 0.52 0.56 0.65 0.60 0.87 1.14 1.18 1.02 0.44 0.17 0.14 0.15 0.10 0.04 0.01 0.01 0.01 0.00 0.00 0.00 0.00 0.00 0.00 0.06 0.19 0.18 0.22 0.12 0.12 0.05 0.02 0.15 0.24 0.35 0.23 0.15 0.09 0.00 0.00 0.00 0.00 0.00 0.00
0.20 0.22 0.24 0.29 0.34 0.44 0.63 0.72 0.70 1.08 1.34 1.07 0.78 0.29 0.14 0.18 0.08 0.02 0.02 0.01 0.01 0.01 0.03 0.01 0.00 0.00 0.01 0.10 0.24 0.23 0.23 0.13 0.10 0.12 0.06 0.06 0.09 0.28 0.29 0.27 0.09 0.00 0.00 0.00 0.00 0.01 0.00
0.17 0.18 0.23 0.29 0.30 0.35 0.39 0.52 0.55 0.72 1.34 1.61 1.22 0.53 0.45 0.42 0.12 0.06 0.07 0.03 0.00 0.01 0.03 0.02 0.03 0.06 0.04 0.16 0.16 0.11 0.05 0.07 0.14 0.19 0.22 0.31 0.22 0.18 0.16 0.19 0.06 0.01 0.02 0.02 0.06 0.02 0.00
0.18 0.19 0.24 0.26 0.33 0.36 0.33 0.46 0.38 0.39 0.80 1.73 1.78 0.65 0.53 0.62 0.19 0.15 0.08 0.06 0.02 0.02 0.05 0.02 0.11 0.11 0.13 0.11 0.10 0.04 0.02 0.01 0.01 0.05 0.21 0.27 0.37 0.29 0.25 0.16 0.05 0.04 0.09 0.05 0.03 0.01 0.00
0.25 0.23 0.23 0.25 0.30 0.41 0.37 0.43 0.36 0.28 0.42 1.13 2.06 1.27 0.45 0.68 0.45 0.18 0.17 0.07 0.02 0.00 0.02 0.05 0.03 0.03 0.03 0.05 0.03 0.03 0.03 0.03 0.01 0.00 0.03 0.19 0.22 0.24 0.22 0.15 0.07 0.03 0.05 0.04 0.03 0.03 0.00

GFSGBSN_prec_precacc24_087.txt.gz
Total_Precipitation_Accumulation
0.03 0.04 0.04 0.03 0.03 0.02 0.02 0.02 0.02 0.01 0.00 0.00 0.00 0.00 0.00 0.00 0.00 0.00 0.00 0.00 0.00 0.00 0.00 0.00 0.00 0.00 0.00 0.00 0.00 0.00 0.00 0.00 0.00 0.00 0.00 0.00 0.00 0.00 0.00 0.00 0.00 0.00 0.00 0.00 0.00 0.00 0.00
0.03 0.02 0.02 0.03 0.02 0.02 0.02 0.02 0.02 0.01 0.01 0.00 0.00 0.00 0.00 0.00 0.00 0.00 0.00 0.00 0.00 0.00 0.00 0.00 0.00 0.00 0.00 0.00 0.00 0.00 0.00 0.00 0.00 0.00 0.00 0.00 0.00 0.00 0.00 0.00 0.00 0.00 0.00 0.00 0.00 0.00 0.00
0.02 0.03 0.02 0.03 0.02 0.02 0.01 0.02 0.01 0.01 0.01 0.00 0.00 0.00 0.00 0.00 0.01 0.01 0.01 0.00 0.00 0.00 0.00 0.00 0.00 0.00 0.00 0.00 0.00 0.00 0.00 0.00 0.00 0.00 0.00 0.00 0.00 0.00 0.00 0.00 0.00 0.00 0.00 0.00 0.04 0.02 0.00
0.03 0.03 0.03 0.03 0.03 0.03 0.02 0.01 0.01 0.01 0.01 0.00 0.01 0.00 0.00 0.00 0.00 0.00 0.00 0.00 0.00 0.00 0.00 0.00 0.00 0.00 0.00 0.00 0.00 0.00 0.00 0.00 0.00 0.00 0.00 0.00 0.00 0.00 0.00 0.00 0.00 0.00 0.00 0.00 0.05 0.00 0.00
0.03 0.03 0.03 0.03 0.03 0.02 0.02 0.02 0.01 0.01 0.01 0.01 0.00 0.00 0.00 0.00 0.00 0.00 0.00 0.00 0.00 0.00 0.00 0.00 0.00 0.00 0.00 0.00 0.00 0.00 0.00 0.00 0.00 0.00 0.00 0.00 0.00 0.00 0.00 0.00 0.00 0.00 0.00 0.00 0.00 0.00 0.00
0.04 0.04 0.03 0.03 0.02 0.02 0.03 0.03 0.02 0.01 0.01 0.00 0.00 0.00 0.00 0.00 0.00 0.00 0.00 0.00 0.00 0.00 0.00 0.00 0.00 0.00 0.00 0.00 0.00 0.00 0.00 0.00 0.00 0.00 0.00 0.00 0.00 0.00 0.00 0.00 0.00 0.00 0.00 0.00 0.00 0.00 0.00
0.03 0.03 0.03 0.02 0.02 0.02 0.02 0.03 0.03 0.02 0.01 0.01 0.01 0.00 0.00 0.00 0.00 0.00 0.00 0.00 0.00 0.00 0.00 0.00 0.00 0.00 0.00 0.00 0.00 0.00 0.00 0.00 0.00 0.00 0.00 0.00 0.00 0.00 0.00 0.00 0.00 0.00 0.00 0.00 0.00 0.00 0.00
0.02 0.03 0.02 0.02 0.03 0.02 0.02 0.02 0.03 0.02 0.02 0.01 0.01 0.00 0.00 0.00 0.00 0.00 0.00 0.00 0.00 0.00 0.00 0.00 0.00 0.00 0.00 0.00 0.00 0.00 0.00 0.00 0.00 0.00 0.00 0.00 0.00 0.00 0.00 0.00 0.00 0.00 0.00 0.00 0.00 0.00 0.00
0.04 0.04 0.04 0.03 0.04 0.04 0.04 0.03 0.03 0.03 0.02 0.01 0.01 0.01 0.00 0.00 0.00 0.00 0.00 0.00 0.00 0.00 0.00 0.00 0.00 0.00 0.00 0.00 0.00 0.00 0.00 0.00 0.00 0.00 0.00 0.00 0.00 0.00 0.00 0.00 0.00 0.00 0.00 0.00 0.00 0.00 0.00
0.06 0.06 0.04 0.04 0.04 0.04 0.03 0.02 0.02 0.02 0.02 0.02 0.01 0.01 0.01 0.00 0.00 0.00 0.00 0.00 0.00 0.00 0.00 0.00 0.00 0.00 0.00 0.00 0.00 0.00 0.00 0.00 0.00 0.00 0.00 0.00 0.00 0.00 0.00 0.00 0.00 0.00 0.00 0.00 0.00 0.00 0.02
0.04 0.03 0.03 0.03 0.03 0.04 0.03 0.03 0.02 0.02 0.03 0.02 0.01 0.00 0.00 0.01 0.00 0.00 0.00 0.00 0.00 0.01 0.00 0.00 0.00 0.00 0.00 0.00 0.00 0.00 0.00 0.00 0.00 0.00 0.00 0.00 0.00 0.00 0.00 0.00 0.00 0.00 0.00 0.00 0.00 0.00 0.00
0.06 0.06 0.06 0.06 0.07 0.07 0.06 0.04 0.03 0.02 0.01 0.01 0.01 0.01 0.03 0.01 0.01 0.00 0.01 0.02 0.08 0.02 0.00 0.00 0.00 0.00 0.00 0.00 0.00 0.00 0.00 0.00 0.00 0.00 0.00 0.00 0.00 0.00 0.00 0.00 0.00 0.00 0.00 0.00 0.00 0.00 0.00
0.07 0.06 0.06 0.06 0.06 0.06 0.06 0.06 0.05 0.04 0.03 0.03 0.02 0.02 0.07 0.02 0.01 0.01 0.02 0.09 0.13 0.02 0.00 0.00 0.00 0.00 0.00 0.00 0.00 0.00 0.00 0.00 0.00 0.00 0.00 0.00 0.00 0.00 0.00 0.00 0.00 0.00 0.00 0.00 0.02 0.00 0.00
0.05 0.05 0.04 0.04 0.04 0.04 0.05 0.06 0.05 0.04 0.04 0.04 0.04 0.08 0.08 0.03 0.00 0.02 0.08 0.16 0.08 0.00 0.00 0.00 0.00 0.00 0.00 0.00 0.00 0.00 0.00 0.00 0.00 0.00 0.00 0.00 0.00 0.00 0.00 0.00 0.00 0.00 0.00 0.02 0.05 0.01 0.02
0.14 0.13 0.11 0.09 0.08 0.08 0.08 0.08 0.07 0.05 0.04 0.05 0.15 0.14 0.11 0.02 0.01 0.04 0.23 0.20 0.03 0.00 0.00 0.00 0.00 0.00 0.00 0.00 0.00 0.00 0.00 0.00 0.00 0.00 0.00 0.00 0.00 0.00 0.00 0.00 0.00 0.00 0.00 0.00 0.00 0.00 0.01
0.10 0.09 0.08 0.08 0.08 0.08 0.08 0.09 0.09 0.09 0.10 0.16 0.23 0.18 0.06 0.02 0.06 0.18 0.41 0.13 0.00 0.00 0.00 0.00 0.00 0.00 0.00 0.00 0.00 0.00 0.00 0.00 0.00 0.00 0.00 0.00 0.00 0.00 0.00 0.00 0.00 0.00 0.00 0.00 0.00 0.00 0.01
0.12 0.12 0.11 0.11 0.12 0.10 0.10 0.10 0.12 0.13 0.14 0.33 0.47 0.50 0.11 0.04 0.33 0.38 0.25 0.04 0.00 0.00 0.00 0.00 0.00 0.00 0.00 0.00 0.01 0.03 0.00 0.00 0.00 0.00 0.00 0.00 0.00 0.00 0.00 0.00 0.00 0.00 0.00 0.00 0.00 0.00 0.00
0.10 0.11 0.13 0.13 0.11 0.11 0.12 0.12 0.13 0.17 0.31 0.80 1.04 0.80 0.16 0.12 0.41 0.25 0.06 0.00 0.00 0.00 0.00 0.00 0.00 0.00 0.00 0.00 0.00 0.02 0.01 0.00 0.00 0.00 0.00 0.00 0.00 0.00 0.00 0.00 0.00 0.00 0.00 0.00 0.00 0.00 0.00
0.07 0.08 0.11 0.11 0.11 0.12 0.11 0.17 0.19 0.23 0.57 1.07 1.35 0.63 0.38 0.23 0.20 0.09 0.03 0.02 0.00 0.00 0.00 0.00 0.00 0.00 0.00 0.00 0.02 0.01 0.03 0.00 0.00 0.00 0.00 0.00 0.01 0.01 0.00 0.00 0.00 0.00 0.00 0.00 0.00 0.00 0.00
0.12 0.10 0.09 0.11 0.13 0.15 0.17 0.23 0.32 0.41 0.72 1.42 1.52 0.82 0.89 0.79 0.10 0.01 0.03 0.06 0.04 0.00 0.00 0.00 0.00 0.00 0.02 0.02 0.03 0.06 0.03 0.05 0.00 0.00 0.00 0.05 0.05 0.02 0.02 0.00 0.00 0.00 0.00 0.00 0.00 0.00 0.00
0.10 0.11 0.13 0.14 0.15 0.18 0.23 0.32 0.42 0.59 0.94 2.09 1.93 0.55 0.32 0.48 0.38 0.07 0.02 0.02 0.02 0.02 0.00 0.00 0.00 0.02 0.03 0.04 0.03 0.03 0.10 0.09 0.07 0.02 0.01 0.10 0.11 0.00 0.00 0.00 0.00 0.00 0.00 0.00 0.00 0.00 0.00
0.11 0.10 0.09 0.11 0.17 0.23 0.29 0.42 0.52 0.73 1.29 2.60 1.61 0.21 0.10 0.07 0.05 0.11 0.08 0.03 0.01 0.00 0.00 0.00 0.00 0.00 0.02 0.05 0.03 0.03 0.08 0.27 0.21 0.22 0.16 0.14 0.11 0.01 0.00 0.00 0.00 0.01 0.00 0.00 0.00 0.00 0.00
0.12 0.12 0.10 0.10 0.16 0.24 0.37 0.51 0.70 0.94 1.78 3.12 1.16 0.14 0.17 0.11 0.07 0.13 0.10 0.03 0.01 0.00 0.00 0.00 0.00 0.00 0.02 0.04 0.06 0.11 0.09 0.14 0.27 0.43 0.41 0.26 0.18 0.09 0.03 0.00 0.00 0.05 0.00 0.00 0.00 0.00 0.00
0.18 0.20 0.22 0.20 0.18 0.27 0.37 0.59 0.78 1.10 1.62 1.83 0.54 0.18 0.33 0.37 0.12 0.03 0.01 0.01 0.00 0.00 0.00 0.00 0.00 0.00 0.00 0.01 0.11 0.18 0.14 0.18 0.13 0.11 0.30 0.28 0.30 0.24 0.09 0.03 0.17 0.05 0.00 0.00 0.00 0.00 0.00
0.21 0.24 0.25 0.29 0.31 0.35 0.51 0.54 0.85 1.16 1.21 1.06 0.46 0.21 0.15 0.16 0.11 0.05 0.02 0.01 0.01 0.00 0.00 0.00 0.00 0.00 0.02 0.07 0.25 0.20 0.22 0.12 0.12 0.05 0.02 0.15 0.24 0.36 0.24 0.15 0.11 0.00 0.00 0.00 0.00 0.00 0.00
0.20 0.24 0.27 0.25 0.21 0.26 0.57 0.71 0.71 1.10 1.37 1.14 0.80 0.31 0.22 0.24 0.09 0.02 0.03 0.02 0.02 0.02 0.05 0.02 0.00 0.03 0.10 0.16 0.31 0.28 0.23 0.13 0.10 0.12 0.06 0.06 0.10 0.29 0.31 0.30 0.09 0.00 0.01 0.01 0.01 0.01 0.00
0.16 0.19 0.21 0.24 0.21 0.22 0.36 0.56 0.62 0.77 1.37 1.66 1.30 0.54 0.44 0.49 0.14 0.05 0.07 0.03 0.01 0.04 0.07 0.03 0.05 0.12 0.15 0.31 0.20 0.14 0.06 0.07 0.13 0.19 0.22 0.32 0.24 0.19 0.18 0.22 0.07 0.01 0.03 0.04 0.09 0.03 0.00
0.16 0.16 0.18 0.19 0.20 0.22 0.26 0.41 0.43 0.50 0.87 1.82 1.86 0.71 0.53 0.64 0.20 0.10 0.06 0.06 0.03 0.05 0.10 0.06 0.19 0.18 0.21 0.19 0.12 0.05 0.02 0.01 0.01 0.04 0.21 0.27 0.42 0.37 0.37 0.25 0.08 0.06 0.11 0.19 0.16 0.07 0.01
0.19 0.15 0.13 0.14 0.15 0.28 0.26 0.38 0.36 0.32 0.51 1.33 2.28 1.35 0.46 0.71 0.54 0.16 0.13 0.07 0.02 0.00 0.06 0.12 0.08 0.05 0.05 0.06 0.03 0.03 0.03 0.03 0.01 0.00 0.02 0.18 0.21 0.24 0.24 0.19 0.09 0.03 0.06 0.12 0.08 0.08 0.04

GFSGBSN_prec_precacc24_093.txt.gz
Total_Precipitation_Accumulation
0.03 0.03 0.03 0.02 0.02 0.01 0.01 0.02 0.02 0.01 0.00 0.00 0.00 0.00 0.00 0.00 0.00 0.00 0.00 0.00 0.00 0.00 0.00 0.00 0.00 0.00 0.00 0.00 0.00 0.00 0.00 0.00 0.00 0.00 0.00 0.00 0.00 0.00 0.00 0.00 0.00 0.00 0.00 0.00 0.00 0.00 0.00
0.03 0.02 0.02 0.02 0.02 0.02 0.02 0.02 0.01 0.01 0.01 0.00 0.00 0.00 0.00 0.00 0.00 0.00 0.00 0.00 0.00 0.00 0.00 0.00 0.00 0.00 0.00 0.00 0.00 0.00 0.00 0.00 0.00 0.00 0.00 0.00 0.00 0.00 0.00 0.00 0.00 0.00 0.00 0.00 0.00 0.00 0.00
0.04 0.03 0.02 0.03 0.02 0.01 0.01 0.01 0.01 0.01 0.01 0.01 0.01 0.00 0.00 0.00 0.00 0.00 0.00 0.00 0.00 0.00 0.00 0.00 0.00 0.00 0.00 0.00 0.00 0.00 0.00 0.00 0.00 0.00 0.00 0.00 0.00 0.00 0.00 0.00 0.00 0.00 0.00 0.00 0.03 0.02 0.00
0.04 0.04 0.03 0.04 0.03 0.02 0.01 0.01 0.01 0.01 0.01 0.01 0.01 0.00 0.00 0.00 0.00 0.00 0.00 0.00 0.00 0.00 0.00 0.00 0.00 0.00 0.00 0.00 0.00 0.00 0.00 0.00 0.00 0.00 0.00 0.00 0.00 0.00 0.00 0.00 0.00 0.00 0.00 0.00 0.01 0.00 0.00
0.04 0.04 0.04 0.04 0.04 0.03 0.03 0.02 0.01 0.01 0.01 0.01 0.00 0.00 0.00 0.00 0.00 0.00 0.00 0.00 0.00 0.00 0.00 0.00 0.00 0.00 0.00 0.00 0.00 0.00 0.00 0.00 0.00 0.00 0.00 0.00 0.00 0.00 0.00 0.00 0.00 0.00 0.00 0.00 0.00 0.00 0.00
0.04 0.04 0.03 0.04 0.04 0.03 0.03 0.02 0.02 0.01 0.01 0.00 0.00 0.00 0.00 0.00 0.00 0.00 0.00 0.00 0.00 0.00 0.00 0.00 0.00 0.00 0.00 0.00 0.00 0.00 0.00 0.00 0.00 0.00 0.00 0.00 0.00 0.00 0.00 0.00 0.00 0.00 0.00 0.00 0.00 0.00 0.00
0.03 0.03 0.03 0.02 0.02 0.02 0.02 0.03 0.03 0.02 0.01 0.01 0.01 0.00 0.00 0.00 0.00 0.00 0.00 0.00 0.00 0.00 0.00 0.00 0.00 0.00 0.00 0.00 0.00 0.00 0.00 0.00 0.00 0.00 0.00 0.00 0.00 0.00 0.00 0.00 0.00 0.00 0.00 0.00 0.00 0.00 0.00
0.03 0.04 0.03 0.03 0.03 0.03 0.03 0.03 0.04 0.03 0.02 0.01 0.00 0.00 0.00 0.00 0.00 0.00 0.00 0.00 0.00 0.00 0.00 0.00 0.00 0.00 0.00 0.00 0.00 0.00 0.00 0.00 0.00 0.00 0.00 0.00 0.00 0.00 0.00 0.00 0.00 0.00 0.00 0.00 0.00 0.00 0.00
0.05 0.05 0.05 0.05 0.05 0.06 0.06 0.05 0.05 0.04 0.03 0.02 0.01 0.00 0.00 0.00 0.00 0.00 0.00 0.00 0.00 0.00 0.00 0.00 0.00 0.00 0.00 0.00 0.00 0.00 0.00 0.00 0.00 0.00 0.00 0.00 0.00 0.00 0.00 0.00 0.00 0.00 0.00 0.00 0.00 0.00 0.00
0.07 0.07 0.05 0.04 0.05 0.04 0.04 0.03 0.03 0.03 0.03 0.02 0.01 0.00 0.00 0.00 0.00 0.00 0.00 0.00 0.00 0.00 0.00 0.00 0.00 0.00 0.00 0.00 0.00 0.00 0.00 0.00 0.00 0.00 0.00 0.00 0.00 0.00 0.00 0.00 0.00 0.00 0.00 0.00 0.00 0.00 0.01
0.07 0.06 0.05 0.04 0.04 0.04 0.04 0.03 0.03 0.03 0.03 0.02 0.02 0.00 0.00 0.01 0.00 0.00 0.00 0.00 0.00 0.01 0.00 0.00 0.00 0.00 0.00 0.00 0.00 0.00 0.00 0.00 0.00 0.00 0.00 0.00 0.00 0.00 0.00 0.00 0.00 0.00 0.00 0.00 0.00 0.00 0.00
0.07 0.07 0.07 0.08 0.08 0.08 0.06 0.05 0.03 0.02 0.01 0.02 0.02 0.01 0.02 0.00 0.00 0.00 0.00 0.02 0.09 0.03 0.00 0.00 0.00 0.00 0.00 0.00 0.00 0.00 0.00 0.00 0.00 0.00 0.00 0.00 0.00 0.00 0.00 0.00 0.00 0.00 0.00 0.00 0.00 0.00 0.00
0.14 0.13 0.12 0.10 0.09 0.08 0.06 0.05 0.05 0.04 0.04 0.04 0.03 0.02 0.05 0.01 0.00 0.00 0.01 0.06 0.12 0.01 0.00 0.00 0.00 0.00 0.00 0.00 0.00 0.00 0.00 0.00 0.00 0.00 0.00 0.00 0.00 0.00 0.00 0.00 0.00 0.00 0.00 0.00 0.02 0.00 0.00
0.12 0.14 0.10 0.06 0.06 0.07 0.06 0.06 0.05 0.06 0.07 0.05 0.05 0.07 0.05 0.01 0.00 0.00 0.03 0.12 0.08 0.00 0.00 0.00 0.00 0.00 0.00 0.00 0.00 0.00 0.00 0.00 0.00 0.00 0.00 0.00 0.00 0.00 0.00 0.00 0.00 0.00 0.00 0.02 0.04 0.02 0.02
0.15 0.15 0.13 0.11 0.10 0.10 0.11 0.11 0.10 0.09 0.07 0.07 0.13 0.10 0.08 0.00 0.00 0.02 0.10 0.14 0.02 0.00 0.00 0.00 0.00 0.00 0.00 0.00 0.00 0.00 0.00 0.00 0.00 0.00 0.00 0.00 0.00 0.00 0.00 0.00 0.00 0.00 0.00 0.00 0.00 0.00 0.01
0.10 0.09 0.08 0.08 0.09 0.08 0.08 0.07 0.07 0.10 0.13 0.18 0.21 0.17 0.05 0.01 0.03 0.11 0.17 0.08 0.00 0.00 0.00 0.00 0.00 0.00 0.00 0.00 0.00 0.00 0.00 0.00 0.00 0.00 0.00 0.00 0.00 0.00 0.00 0.00 0.00 0.00 0.00 0.00 0.00 0.00 0.01
0.10 0.10 0.10 0.10 0.11 0.12 0.12 0.11 0.10 0.12 0.16 0.35 0.46 0.43 0.09 0.02 0.27 0.28 0.12 0.02 0.00 0.00 0.00 0.00 0.00 0.00 0.00 0.00 0.01 0.03 0.00 0.00 0.00 0.00 0.00 0.00 0.00 0.00 0.00 0.00 0.00 0.00 0.00 0.00 0.00 0.00 0.00
0.09 0.09 0.10 0.11 0.10 0.09 0.15 0.16 0.12 0.17 0.35 0.77 0.99 0.73 0.16 0.11 0.37 0.20 0.04 0.00 0.00 0.00 0.00 0.00 0.00 0.00 0.00 0.00 0.00 0.02 0.01 0.00 0.00 0.00 0.00 0.00 0.00 0.00 0.00 0.00 0.00 0.00 0.00 0.00 0.00 0.00 0.00
0.08 0.09 0.11 0.10 0.10 0.09 0.10 0.16 0.17 0.22 0.56 1.00 1.27 0.58 0.31 0.29 0.23 0.09 0.04 0.02 0.00 0.00 0.00 0.00 0.00 0.00 0.00 0.00 0.02 0.01 0.03 0.00 0.00 0.00 0.00 0.00 0.01 0.01 0.00 0.00 0.00 0.00 0.00 0.00 0.00 0.00 0.00
0.10 0.10 0.10 0.11 0.11 0.11 0.13 0.14 0.20 0.28 0.62 1.37 1.45 0.74 0.70 0.79 0.16 0.07 0.06 0.07 0.04 0.00 0.00 0.00 0.00 0.00 0.02 0.02 0.03 0.06 0.03 0.05 0.00 0.00 0.00 0.05 0.05 0.02 0.02 0.00 0.00 0.00 0.00 0.00 0.00 0.00 0.00
0.08 0.09 0.10 0.12 0.14 0.14 0.16 0.21 0.22 0.35 0.72 1.85 1.80 0.54 0.24 0.45 0.41 0.14 0.09 0.07 0.03 0.03 0.01 0.00 0.00 0.02 0.03 0.04 0.03 0.03 0.10 0.09 0.07 0.02 0.01 0.10 0.12 0.01 0.00 0.00 0.00 0.00 0.00 0.00 0.00 0.00 0.00
0.10 0.11 0.12 0.14 0.15 0.17 0.17 0.18 0.25 0.43 0.98 2.25 1.45 0.29 0.17 0.11 0.11 0.16 0.17 0.13 0.05 0.02 0.02 0.02 0.00 0.00 0.02 0.04 0.03 0.03 0.08 0.27 0.21 0.22 0.17 0.15 0.12 0.02 0.00 0.00 0.00 0.01 0.00 0.00 0.00 0.00 0.00
0.10 0.10 0.09 0.09 0.12 0.15 0.19 0.23 0.32 0.51 1.34 2.57 1.08 0.19 0.27 0.16 0.12 0.26 0.19 0.07 0.05 0.04 0.02 0.00 0.01 0.02 0.02 0.04 0.06 0.11 0.09 0.14 0.27 0.43 0.42 0.27 0.19 0.10 0.03 0.00 0.01 0.05 0.00 0.00 0.00 0.00 0.00
0.17 0.20 0.21 0.20 0.16 0.14 0.16 0.24 0.36 0.55 1.13 1.45 0.52 0.23 0.38 0.40 0.11 0.05 0.05 0.07 0.07 0.06 0.04 0.03 0.02 0.03 0.02 0.01 0.12 0.19 0.15 0.19 0.13 0.11 0.30 0.28 0.30 0.24 0.09 0.03 0.17 0.05 0.00 0.00 0.00 0.00 0.00
0.16 0.19 0.23 0.29 0.33 0.30 0.23 0.20 0.39 0.62 0.83 1.02 0.53 0.28 0.20 0.17 0.11 0.06 0.03 0.03 0.04 0.03 0.05 0.05 0.03 0.03 0.07 0.15 0.31 0.21 0.22 0.14 0.13 0.05 0.02 0.15 0.24 0.37 0.24 0.15 0.11 0.01 0.00 0.00 0.01 0.00 0.01
0.17 0.20 0.23 0.23 0.24 0.28 0.34 0.37 0.36 0.68 0.96 1.11 0.85 0.35 0.26 0.28 0.09 0.02 0.02 0.03 0.05 0.08 0.08 0.03 0.01 0.09 0.19 0.28 0.40 0.33 0.24 0.13 0.10 0.12 0.06 0.06 0.10 0.30 0.32 0.31 0.09 0.01 0.02 0.02 0.03 0.03 0.03
0.14 0.16 0.19 0.21 0.22 0.23 0.25 0.30 0.39 0.52 1.04 1.63 1.33 0.58 0.51 0.54 0.14 0.03 0.03 0.01 0.01 0.07 0.15 0.11 0.10 0.18 0.26 0.49 0.31 0.20 0.08 0.09 0.12 0.17 0.22 0.33 0.28 0.24 0.19 0.24 0.07 0.01 0.04 0.10 0.14 0.07 0.00
0.10 0.12 0.15 0.16 0.19 0.18 0.20 0.25 0.33 0.42 0.70 1.79 1.88 0.75 0.57 0.64 0.17 0.02 0.03 0.03 0.03 0.06 0.12 0.17 0.35 0.26 0.28 0.33 0.20 0.11 0.04 0.02 0.00 0.03 0.18 0.27 0.42 0.39 0.39 0.30 0.10 0.07 0.14 0.25 0.20 0.08 0.02
0.10 0.10 0.10 0.11 0.13 0.20 0.16 0.19 0.23 0.34 0.48 1.39 2.51 1.39 0.49 0.73 0.49 0.10 0.02 0.01 0.02 0.03 0.12 0.24 0.22 0.18 0.12 0.13 0.08 0.07 0.06 0.04 0.01 0.00 0.02 0.17 0.19 0.22 0.24 0.20 0.10 0.04 0.06 0.12 0.08 0.08 0.04

GFSGBSN_prec_precacc24_096.txt.gz
Total_Precipitation_Accumulation
0.03 0.03 0.03 0.02 0.02 0.01 0.01 0.02 0.01 0.01 0.00 0.00 0.00 0.00 0.00 0.00 0.00 0.00 0.00 0.00 0.00 0.00 0.00 0.00 0.00 0.00 0.00 0.00 0.00 0.00 0.00 0.00 0.00 0.00 0.00 0.00 0.00 0.00 0.00 0.00 0.00 0.00 0.00 0.00 0.00 0.00 0.00
0.03 0.02 0.02 0.02 0.02 0.02 0.02 0.02 0.01 0.01 0.01 0.00 0.00 0.00 0.00 0.00 0.00 0.00 0.00 0.00 0.00 0.00 0.00 0.00 0.00 0.00 0.00 0.00 0.00 0.00 0.00 0.00 0.00 0.00 0.00 0.00 0.00 0.00 0.00 0.00 0.00 0.00 0.00 0.00 0.00 0.00 0.00
0.04 0.03 0.02 0.03 0.02 0.01 0.01 0.01 0.01 0.01 0.01 0.00 0.00 0.00 0.00 0.00 0.00 0.00 0.00 0.00 0.00 0.00 0.00 0.00 0.00 0.00 0.00 0.00 0.00 0.00 0.00 0.00 0.00 0.00 0.00 0.00 0.00 0.00 0.00 0.00 0.00 0.00 0.00 0.00 0.00 0.00 0.00
0.03 0.03 0.03 0.04 0.04 0.03 0.02 0.01 0.01 0.00 0.01 0.01 0.00 0.00 0.00 0.00 0.00 0.00 0.00 0.00 0.00 0.00 0.00 0.00 0.00 0.00 0.00 0.00 0.00 0.00 0.00 0.00 0.00 0.00 0.00 0.00 0.00 0.00 0.00 0.00 0.00 0.00 0.00 0.00 0.00 0.00 0.00
0.04 0.04 0.03 0.03 0.04 0.03 0.03 0.02 0.01 0.01 0.01 0.01 0.00 0.00 0.00 0.00 0.00 0.00 0.00 0.00 0.00 0.00 0.00 0.00 0.00 0.00 0.00 0.00 0.00 0.00 0.00 0.00 0.00 0.00 0.00 0.00 0.00 0.00 0.00 0.00 0.00 0.00 0.00 0.00 0.00 0.00 0.00
0.04 0.03 0.03 0.03 0.03 0.03 0.03 0.02 0.02 0.01 0.01 0.00 0.00 0.00 0.00 0.00 0.00 0.00 0.00 0.00 0.00 0.00 0.00 0.00 0.00 0.00 0.00 0.00 0.00 0.00 0.00 0.00 0.00 0.00 0.00 0.00 0.00 0.00 0.00 0.00 0.00 0.00 0.00 0.00 0.00 0.00 0.00
0.03 0.03 0.03 0.03 0.02 0.02 0.02 0.03 0.03 0.02 0.02 0.01 0.01 0.00 0.00 0.00 0.00 0.00 0.00 0.00 0.00 0.00 0.00 0.00 0.00 0.00 0.00 0.00 0.00 0.00 0.00 0.00 0.00 0.00 0.00 0.00 0.00 0.00 0.00 0.00 0.00 0.00 0.00 0.00 0.00 0.00 0.00
0.03 0.04 0.04 0.04 0.04 0.04 0.04 0.04 0.04 0.03 0.02 0.01 0.01 0.00 0.00 0.00 0.00 0.00 0.00 0.00 0.00 0.00 0.00 0.00 0.00 0.00 0.00 0.00 0.00 0.00 0.00 0.00 0.00 0.00 0.00 0.00 0.00 0.00 0.00 0.00 0.00 0.00 0.00 0.00 0.00 0.00 0.00
0.05 0.05 0.05 0.05 0.05 0.05 0.06 0.05 0.05 0.04 0.03 0.02 0.01 0.00 0.00 0.00 0.00 0.00 0.00 0.00 0.00 0.00 0.00 0.00 0.00 0.00 0.00 0.00 0.00 0.00 0.00 0.00 0.00 0.00 0.00 0.00 0.00 0.00 0.00 0.00 0.00 0.00 0.00 0.00 0.00 0.00 0.00
0.07 0.07 0.06 0.05 0.05 0.05 0.04 0.03 0.03 0.03 0.02 0.03 0.02 0.01 0.00 0.00 0.00 0.00 0.00 0.00 0.00 0.00 0.00 0.00 0.00 0.00 0.00 0.00 0.00 0.00 0.00 0.00 0.00 0.00 0.00 0.00 0.00 0.00 0.00 0.00 0.00 0.00 0.00 0.00 0.00 0.00 0.00
0.07 0.06 0.05 0.04 0.04 0.05 0.04 0.04 0.04 0.03 0.03 0.02 0.02 0.01 0.01 0.01 0.00 0.00 0.00 0.00 0.00 0.01 0.00 0.00 0.00 0.00 0.00 0.00 0.00 0.00 0.00 0.00 0.00 0.00 0.00 0.00 0.00 0.00 0.00 0.00 0.00 0.00 0.00 0.00 0.00 0.00 0.00
0.07 0.07 0.08 0.08 0.09 0.09 0.07 0.06 0.04 0.03 0.02 0.02 0.03 0.02 0.03 0.00 0.00 0.00 0.00 0.01 0.05 0.02 0.00 0.00 0.00 0.00 0.00 0.00 0.00 0.00 0.00 0.00 0.00 0.00 0.00 0.00 0.00 0.00 0.00 0.00 0.00 0.00 0.00 0.00 0.00 0.00 0.00
0.15 0.14 0.13 0.11 0.10 0.09 0.08 0.07 0.06 0.05 0.04 0.05 0.05 0.04 0.06 0.01 0.00 0.00 0.00 0.02 0.08 0.01 0.00 0.00 0.00 0.00 0.00 0.00 0.00 0.00 0.00 0.00 0.00 0.00 0.00 0.00 0.00 0.00 0.00 0.00 0.00 0.00 0.00 0.00 0.01 0.01 0.00
0.13 0.15 0.10 0.06 0.06 0.08 0.08 0.07 0.06 0.06 0.07 0.06 0.06 0.09 0.05 0.01 0.00 0.01 0.01 0.03 0.05 0.00 0.00 0.00 0.00 0.00 0.00 0.00 0.00 0.00 0.00 0.00 0.00 0.00 0.00 0.00 0.00 0.00 0.00 0.00 0.00 0.00 0.00 0.00 0.01 0.02 0.01
0.14 0.15 0.13 0.11 0.10 0.10 0.11 0.12 0.11 0.10 0.08 0.08 0.13 0.10 0.09 0.01 0.00 0.02 0.04 0.05 0.01 0.00 0.00 0.00 0.00 0.00 0.00 0.00 0.00 0.00 0.00 0.00 0.00 0.00 0.00 0.00 0.00 0.00 0.00 0.00 0.00 0.00 0.00 0.00 0.00 0.01 0.03
0.09 0.08 0.07 0.08 0.08 0.08 0.08 0.08 0.08 0.10 0.12 0.16 0.21 0.19 0.06 0.01 0.05 0.08 0.09 0.03 0.00 0.00 0.00 0.00 0.00 0.00 0.00 0.00 0.00 0.00 0.00 0.00 0.00 0.00 0.00 0.00 0.00 0.00 0.00 0.00 0.00 0.00 0.00 0.00 0.00 0.00 0.01
0.09 0.08 0.08 0.08 0.10 0.11 0.12 0.11 0.10 0.11 0.16 0.35 0.47 0.43 0.08 0.02 0.24 0.26 0.08 0.00 0.00 0.00 0.00 0.00 0.00 0.00 0.00 0.01 0.01 0.03 0.01 0.02 0.00 0.00 0.00 0.00 0.00 0.01 0.00 0.00 0.00 0.00 0.00 0.00 0.00 0.00 0.00
0.08 0.08 0.09 0.09 0.09 0.09 0.14 0.15 0.12 0.15 0.34 0.67 0.94 0.68 0.20 0.12 0.38 0.19 0.04 0.00 0.00 0.00 0.00 0.00 0.00 0.00 0.00 0.00 0.00 0.02 0.01 0.01 0.00 0.00 0.00 0.00 0.00 0.00 0.00 0.00 0.00 0.00 0.00 0.00 0.00 0.00 0.00
0.07 0.08 0.10 0.09 0.09 0.09 0.09 0.16 0.16 0.20 0.49 0.83 1.08 0.49 0.38 0.34 0.27 0.10 0.05 0.02 0.00 0.00 0.00 0.00 0.00 0.00 0.00 0.00 0.02 0.01 0.03 0.00 0.00 0.00 0.00 0.00 0.01 0.01 0.00 0.00 0.00 0.00 0.00 0.00 0.00 0.00 0.00
0.09 0.09 0.09 0.10 0.10 0.10 0.13 0.14 0.19 0.24 0.52 1.13 1.23 0.62 0.67 0.83 0.18 0.09 0.12 0.09 0.04 0.00 0.00 0.00 0.00 0.00 0.00 0.02 0.03 0.06 0.03 0.05 0.00 0.00 0.00 0.05 0.05 0.02 0.03 0.00 0.00 0.00 0.00 0.00 0.00 0.00 0.00
0.07 0.07 0.09 0.10 0.12 0.12 0.14 0.19 0.21 0.31 0.61 1.52 1.47 0.51 0.27 0.51 0.43 0.15 0.12 0.14 0.06 0.03 0.02 0.00 0.00 0.00 0.01 0.03 0.03 0.03 0.10 0.09 0.07 0.02 0.01 0.10 0.12 0.01 0.00 0.00 0.00 0.00 0.00 0.00 0.00 0.00 0.00
0.08 0.09 0.09 0.12 0.13 0.15 0.16 0.16 0.23 0.41 0.83 1.89 1.19 0.28 0.19 0.14 0.14 0.20 0.19 0.14 0.10 0.04 0.04 0.03 0.01 0.00 0.00 0.02 0.03 0.02 0.08 0.27 0.21 0.22 0.17 0.15 0.12 0.02 0.00 0.00 0.00 0.01 0.00 0.00 0.00 0.00 0.00
0.10 0.10 0.09 0.09 0.10 0.13 0.16 0.17 0.30 0.51 1.13 1.99 0.83 0.20 0.33 0.24 0.16 0.29 0.23 0.10 0.05 0.06 0.04 0.01 0.02 0.04 0.02 0.01 0.02 0.06 0.08 0.13 0.27 0.43 0.43 0.27 0.19 0.10 0.03 0.00 0.01 0.05 0.00 0.00 0.00 0.00 0.00
0.17 0.19 0.21 0.20 0.18 0.15 0.15 0.20 0.30 0.54 0.96 1.06 0.42 0.27 0.42 0.38 0.12 0.08 0.07 0.11 0.11 0.09 0.08 0.04 0.03 0.06 0.04 0.01 0.09 0.12 0.14 0.19 0.13 0.11 0.30 0.28 0.31 0.25 0.09 0.03 0.17 0.05 0.00 0.00 0.00 0.00 0.00
0.16 0.19 0.24 0.29 0.33 0.30 0.24 0.21 0.31 0.50 0.71 0.78 0.51 0.35 0.27 0.19 0.12 0.06 0.03 0.06 0.07 0.06 0.06 0.06 0.04 0.05 0.10 0.17 0.30 0.19 0.19 0.14 0.13 0.05 0.02 0.15 0.26 0.35 0.23 0.15 0.11 0.01 0.00 0.00 0.01 0.00 0.01
0.17 0.19 0.22 0.23 0.24 0.29 0.35 0.37 0.33 0.40 0.64 0.84 0.76 0.41 0.33 0.35 0.11 0.04 0.04 0.03 0.07 0.11 0.10 0.04 0.01 0.09 0.24 0.32 0.36 0.30 0.26 0.12 0.08 0.12 0.06 0.06 0.11 0.28 0.31 0.31 0.10 0.01 0.02 0.02 0.03 0.03 0.03
0.11 0.13 0.16 0.18 0.21 0.23 0.25 0.30 0.39 0.43 0.56 1.21 1.15 0.61 0.57 0.58 0.13 0.03 0.04 0.01 0.01 0.09 0.19 0.16 0.14 0.21 0.33 0.44 0.30 0.17 0.09 0.14 0.17 0.15 0.20 0.33 0.30 0.23 0.18 0.24 0.07 0.02 0.04 0.10 0.14 0.09 0.00
0.09 0.09 0.11 0.13 0.13 0.15 0.19 0.25 0.33 0.42 0.54 1.19 1.63 0.77 0.62 0.64 0.16 0.02 0.03 0.02 0.03 0.06 0.13 0.21 0.41 0.27 0.25 0.30 0.19 0.12 0.05 0.04 0.02 0.06 0.11 0.22 0.44 0.39 0.37 0.30 0.10 0.07 0.15 0.25 0.21 0.08 0.02
0.08 0.08 0.09 0.09 0.11 0.12 0.15 0.19 0.25 0.35 0.49 1.08 2.12 1.38 0.53 0.76 0.48 0.09 0.02 0.00 0.01 0.03 0.15 0.31 0.38 0.38 0.14 0.15 0.12 0.11 0.09 0.05 0.01 0.01 0.02 0.06 0.11 0.18 0.23 0.20 0.10 0.04 0.07 0.12 0.08 0.08 0.04